星链-37166(STARLINK-37166)

导读

STARLINK-37166(NORAD编号69195)是美国SpaceX星链项目的低轨卫星,隶属于Starlink V1.0平台,由太空探索技术公司自主研发运营。该卫星运行在近地轨道,近地点约358公里、远地点约360公里,轨道倾角53.157°,绕行地球一周约91.7分钟,每日绕地球运行约15.7圈。 作为星链星座的组成部分,它旨在为全球提供高速低延迟卫星互联网服务,覆盖偏远地区并支持商业、军事等多领域通信需求,助力缩小全球数字鸿沟,推动互联网普及,目前在轨正常运行。

基本信息
目录编号:
69195
目录名称:
STARLINK-37166
国际标识:
2026-114P
轨道中心:
EARTH
卫星名称:
星链-37166
卫星全名:
星链-37166(STARLINK-37166)
卫星状态:
在轨 (已飞行18 天)
发射日期:
2026-05-25 UTC
国别 :
美国 (US)
星等 :
--
轨道信息
数据来源 国际轨道数据
星历时间: 2026-06-12T14:08:46+0800
16小时前
查看轨道信息
半长轴: 6705.949km
偏心率: 0.0001284
轨道倾角: 53.158°
近地点辐角 70.118°
升交点赤经 226.845°
平近点角 289.998°
近地点: 326.95km
远地点: 328.674km
周期: 91.086分钟
每日圈数: 15.809293
详细信息
固有亮度:
5
最大亮度:
2.5
卫星平台:
Starlink V1.0
覆盖范围:
全球
运营商:
太空探索技术公司
运营商所在国:
美国
制造商(研发单位):
太空探索技术公司
制造商所在国:
美国
使用方式:
暂无
卫星简介
Starlink 计划是 SpaceX 推出的全球卫星互联网项目,通过发射低轨道卫星,为全球尤其是偏远地区提供高速、低延迟的互联网服务。自 2019 年起,Starlink 已部署数千颗卫星,旨在缩小全球数字鸿沟,推动互联网普及。该项目还为军事、航空等行业提供通信支持,带来广泛经济效益。
2D轨道图
3D轨道图
轨道高度分析图
轨道倾角分析图
轨道综合分析图
查看轨道综合分析图